Change the Weather History Date:

Thursday, October 18, 2012

  Actual Average (KSTC) Record (KSTC)
Temperature  
Mean Temperature 44 °F 45 °F  
Max Temperature 48 °F 56 °F 80 °F (1945)
Min Temperature 41 °F 34 °F 14 °F (1972)
Degree Days  
Heating Degree Days 20 20  
Month to date heating degree days 301  
Since 1 July heating degree days 587  
Cooling Degree Days 0 0  
Month to date cooling degree days 0  
Year to date cooling degree days 463  
Moisture  
Dew Point 43 °F    
Average Humidity 92    
Maximum Humidity 98    
Minimum Humidity 82    
Precipitation  
Precipitation 0.04 in 0.08 in 1.58 in (1984)
Month to date precipitation 1.64  
Year to date precipitation 24.68  
Snow  
Snow 0.00 in 0.00 in 0.90 in (1976)
Month to date snowfall 0.2  
Since 1 July snowfall 0.2  
Since 1 September snowfall 0.2  
Snow Depth -    
Sea Level Pressure  
Sea Level Pressure 29.26 in    
Wind  
Wind Speed 6 mph (WNW)    
Max Wind Speed 13 mph    
Max Gust Speed -    
Visibility 9 miles    
Events Rain    
T = Trace of Precipitation, MM = Missing Value Source: NWS Daily Summary

Daily Weather History Graph

Daily Weather History Graph

Search for Another Location

Airport or City:

Trip Planner

Search our weather history database for the weather conditions in past years. The results will help you decide how hot, cold, wet, or windy it might be!

Date:

Astronomy

Oct. 18, 2012 Rise Set
Actual Time 7:36 AM CDT 6:24 PM CDT
Civil Twilight 7:06 AM CDT 6:54 PM CDT
Nautical Twilight 6:32 AM CDT 7:28 PM CDT
Astronomical Twilight 5:58 AM CDT 8:02 PM CDT
Moon 11:29 AM CDT (10/18) 8:49 PM CDT (10/18)
Length of Visible Light 11h 47m
Length of Day
10h 48m
Waxing Crescent, 14% of the Moon is Illuminated
Oct 18
Waxing Crescent
Oct 21
First Quarter
Oct 29
Full
Nov 6
Last Quarter
Nov 13
New

Hourly Weather History & Observations

Time (CDT) Temp. Windchill Dew Point Humidity Pressure Visibility Wind Dir Wind Speed Gust Speed Precip Events Conditions
12:14 AM 45.5 °F 39.6 °F 40.3 °F 82% 29.26 in 10.0 mi West 12.7 mph - N/A   Overcast
12:34 AM 45.1 °F 40.3 °F 40.3 °F 83% 29.26 in 10.0 mi West 9.2 mph - N/A   Overcast
12:54 AM 44.6 °F 39.7 °F 41.0 °F 87% 29.25 in 7.0 mi West 9.2 mph - N/A   Overcast
1:14 AM 44.6 °F 39.2 °F 40.8 °F 87% 29.25 in 10.0 mi West 10.4 mph - N/A   Overcast
1:34 AM 44.6 °F 41.4 °F 40.5 °F 85% 29.24 in 10.0 mi WNW 5.8 mph - N/A   Overcast
1:54 AM 44.8 °F 40.4 °F 40.5 °F 85% 29.23 in 10.0 mi WSW 8.1 mph - N/A   Overcast
2:14 AM 43.7 °F 39.1 °F 41.9 °F 93% 29.23 in 4.0 mi West 8.1 mph - N/A   Overcast
2:34 AM 43.9 °F 39.3 °F 41.0 °F 90% 29.23 in 10.0 mi West 8.1 mph - N/A   Overcast
2:54 AM 43.9 °F 40.5 °F 41.0 °F 90% 29.23 in 10.0 mi West 5.8 mph - N/A   Overcast
3:14 AM 43.7 °F 41.1 °F 41.0 °F 90% 29.22 in 10.0 mi West 4.6 mph - N/A   Overcast
3:34 AM 43.7 °F 39.7 °F 41.2 °F 91% 29.21 in 10.0 mi West 6.9 mph - N/A   Overcast
3:54 AM 43.7 °F 41.1 °F 41.2 °F 91% 29.21 in 10.0 mi West 4.6 mph - N/A   Overcast
4:15 AM 43.3 °F 39.9 °F 41.5 °F 93% 29.21 in 7.0 mi West 5.8 mph - N/A   Drizzle
4:34 AM 42.8 °F 38.6 °F 41.5 °F 95% 29.20 in 5.0 mi West 6.9 mph - 0.01 in Rain Light Rain
4:54 AM 42.8 °F 38.6 °F 41.7 °F 96% 29.20 in 5.0 mi West 6.9 mph - 0.02 in Rain Light Rain
5:14 AM 42.8 °F 40.1 °F 41.9 °F 97% 29.20 in 5.0 mi West 4.6 mph - N/A   Drizzle
5:34 AM 42.4 °F 39.6 °F 41.5 °F 97% 29.19 in 7.0 mi West 4.6 mph - N/A   Overcast
5:54 AM 42.4 °F 39.6 °F 41.4 °F 96% 29.18 in 7.0 mi WSW 4.6 mph - N/A   Overcast
6:14 AM 42.3 °F 40.5 °F 41.4 °F 97% 29.18 in 10.0 mi West 3.5 mph - N/A   Overcast
6:34 AM 42.3 °F 38.6 °F 41.2 °F 96% 29.18 in 10.0 mi West 5.8 mph - N/A   Overcast
6:55 AM 42.3 °F 39.4 °F 41.2 °F 96% 29.18 in 10.0 mi WSW 4.6 mph - N/A   Overcast
7:14 AM 41.9 °F 38.2 °F 41.0 °F 97% 29.17 in 5.0 mi WSW 5.8 mph - N/A   Overcast
7:54 AM 41.9 °F 40.0 °F 41.2 °F 97% 29.17 in 10.0 mi WSW 3.5 mph - N/A   Overcast
8:14 AM 41.9 °F - 41.0 °F 97% 29.18 in 10.0 mi Calm Calm - N/A   Overcast
8:34 AM 42.1 °F - 41.4 °F 97% 29.18 in 10.0 mi Calm Calm - N/A   Drizzle
8:54 AM 42.3 °F 40.5 °F 41.5 °F 97% 29.18 in 5.0 mi WSW 3.5 mph - 0.01 in Rain Light Rain
9:14 AM 42.4 °F - 41.9 °F 98% 29.18 in 10.0 mi Calm Calm - N/A   Overcast
9:34 AM 42.8 °F - 41.9 °F 97% 29.18 in 10.0 mi Calm Calm - N/A   Overcast
9:54 AM 43.7 °F - 42.1 °F 94% 29.18 in 10.0 mi Calm Calm - N/A   Overcast
10:14 AM 43.9 °F - 41.7 °F 92% 29.18 in 10.0 mi Calm Calm - N/A   Overcast
10:34 AM 44.2 °F - 41.5 °F 90% 29.18 in 10.0 mi Calm Calm - N/A   Overcast
10:54 AM 44.6 °F 42.2 °F 41.9 °F 90% 29.18 in 10.0 mi North 4.6 mph - N/A   Overcast
11:14 AM 45.3 °F 43.0 °F 42.1 °F 88% 29.18 in 10.0 mi North 4.6 mph - N/A   Overcast
11:34 AM 46.0 °F - 42.4 °F 87% 29.19 in 10.0 mi Calm Calm - N/A   Overcast
11:54 AM 46.4 °F 43.5 °F 42.4 °F 86% 29.21 in 10.0 mi North 5.8 mph - N/A   Overcast
12:14 PM 45.5 °F 43.2 °F 42.4 °F 89% 29.21 in 10.0 mi NNE 4.6 mph - N/A   Overcast
12:34 PM 45.9 °F 44.6 °F 42.3 °F 87% 29.22 in 10.0 mi NNE 3.5 mph - N/A   Overcast
12:54 PM 46.4 °F - 42.8 °F 87% 29.23 in 10.0 mi Calm Calm - N/A   Overcast
1:14 PM 46.4 °F - 42.8 °F 87% 29.23 in 10.0 mi Calm Calm - N/A   Overcast
1:34 PM 46.9 °F - 43.2 °F 87% 29.24 in 10.0 mi NNW 6.9 mph - N/A   Overcast
1:54 PM 46.4 °F 43.5 °F 43.7 °F 90% 29.25 in 3.0 mi NNW 5.8 mph - N/A   Overcast
2:14 PM 46.0 °F 43.1 °F 44.2 °F 93% 29.25 in 3.0 mi NW 5.8 mph - N/A   Overcast
2:34 PM 45.9 °F 43.6 °F 44.6 °F 95% 29.26 in 4.0 mi NNW 4.6 mph - N/A   Overcast
2:54 PM 46.4 °F - 44.8 °F 94% 29.27 in 7.0 mi Calm Calm - N/A   Overcast
3:14 PM 46.8 °F - 44.6 °F 92% 29.28 in 7.0 mi NW 5.8 mph - N/A   Light Drizzle
3:34 PM 47.3 °F - 45.0 °F 92% 29.29 in 5.0 mi NW 5.8 mph - N/A   Overcast
3:54 PM 46.4 °F 44.3 °F 45.3 °F 96% 29.30 in 2.0 mi NW 4.6 mph - N/A   Light Drizzle
4:14 PM 46.6 °F - 45.3 °F 95% 29.30 in 10.0 mi NW 3.5 mph - N/A   Overcast
4:34 PM 47.3 °F - 45.1 °F 92% 29.31 in 10.0 mi WNW 3.5 mph - N/A   Overcast
4:54 PM 48.0 °F - 44.8 °F 89% 29.30 in 10.0 mi West 4.6 mph - N/A   Overcast
5:14 PM 48.2 °F - 44.6 °F 87% 29.31 in 10.0 mi WNW 4.6 mph - N/A   Overcast
5:34 PM 48.2 °F - 44.8 °F 88% 29.31 in 10.0 mi West 4.6 mph - N/A   Overcast
5:54 PM 48.2 °F - 44.6 °F 87% 29.31 in 10.0 mi West 4.6 mph - N/A   Overcast
6:14 PM 48.2 °F - 44.4 °F 87% 29.32 in 10.0 mi West 3.5 mph - N/A   Overcast
6:34 PM 47.8 °F - 44.4 °F 88% 29.32 in 10.0 mi WSW 3.5 mph - N/A   Overcast
6:54 PM 47.7 °F - 44.2 °F 88% 29.33 in 10.0 mi West 4.6 mph - N/A   Overcast
7:14 PM 47.5 °F - 44.6 °F 90% 29.33 in 10.0 mi West 3.5 mph - N/A   Overcast
7:35 PM 47.5 °F - 44.6 °F 90% 29.34 in 10.0 mi West 4.6 mph - N/A   Overcast
7:54 PM 47.3 °F - 44.6 °F 90% 29.35 in 10.0 mi Calm Calm - N/A   Overcast
8:14 PM 47.3 °F - 44.6 °F 90% 29.35 in 10.0 mi Calm Calm - N/A   Overcast
8:34 PM 46.9 °F - 44.2 °F 90% 29.35 in 10.0 mi Calm Calm - N/A   Overcast
8:54 PM 46.8 °F - 44.6 °F 92% 29.36 in 10.0 mi Calm Calm - N/A   Overcast
9:14 PM 46.4 °F - 44.6 °F 93% 29.36 in 10.0 mi Calm Calm - N/A   Mostly Cloudy
9:34 PM 45.7 °F - 44.2 °F 95% 29.37 in 10.0 mi Calm Calm - N/A   Mostly Cloudy
9:54 PM 45.3 °F - 44.1 °F 95% 29.37 in 10.0 mi Calm Calm - N/A   Overcast
10:14 PM 45.9 °F - 44.6 °F 95% 29.37 in 10.0 mi Calm Calm - N/A   Drizzle
10:34 PM 45.7 °F - 44.6 °F 96% 29.38 in 10.0 mi Calm Calm - N/A   Light Drizzle
10:54 PM 44.8 °F - 43.9 °F 97% 29.38 in 10.0 mi Calm Calm - N/A   Mostly Cloudy
11:14 PM 44.8 °F - 44.1 °F 97% 29.39 in 10.0 mi Calm Calm - 0.01 in Rain Light Rain
11:34 PM 45.0 °F - 44.2 °F 97% 29.39 in 10.0 mi Calm Calm - 0.01 in   Drizzle
11:54 PM 44.6 °F - 43.7 °F 97% 29.40 in 7.0 mi Calm Calm - 0.01 in   Light Drizzle